678  
ASUS46 KPDT 032225  
RWRPDT  
PENDLETON REGIONAL WEATHER ROUNDUP  
NATIONAL WEATHER SERVICE PENDLETON OREGON  
200 PM PST SAT DEC 3 2022  
 
NOTE: FAIR INDICATES FEW OR NO CLOUDS BELOW 12,000 FEET WITH NO  
SIGNIFICANT WEATHER AND/OR S TO VISIBILITY
.  
 
# INDICATES UNOFFICIAL STATION AND DATA  
 
WAZ520-032310-  
EAST SLOPES OF WASHINGTON CASCADES  
 
CITY SKY/WX TMP DP RH WIND PRES REMARKS
 
#BULLFROG N/A 27 21 78 CALM N/A  
#ELK HTS DOT N/A 26 26 100 CALM N/A  
#GLENWOOD N/A 32 23 69 NE6 30.27S  
#NILE N/A 22 19 88 CALM 29.55S  
#TROUT LAKE 1NE N/A 32 27 82 SE3 30.24F  
#TROUT LAKE 1E N/A 33 27 78 CALM 30.15F  

 
 
WAZ521-032310-  
SIMCOE HIGHLANDS  
 
CITY SKY/WX TMP DP RH WIND PRES REMARKS
 
#SATUS PASS DOT N/A 22 20 92 NE16 N/A WCI 8  
#CENTERVILLE 1SWN/A 29 24 81 E7 30.22F  
#LYLE 6NE N/A 31 25 78 CALM 30.27R  

 
 
WAZ026-032310-  
KITTITAS VALLEY  
 
CITY SKY/WX TMP DP RH WIND PRES REMARKS
 
ELLENSBURG AP FAIR 27 17 65 W3 30.26S  
#ELLENSBURG CWU N/A 28 21 75 CALM 30.33F  
#ELLENSBURG 1E N/A 26 20 78 CALM 30.40F  
#KITTITAS 3S N/A 21 19 92 CALM 30.37S  
#MANASTASH RDG N/A 24 16 71 NE12 N/A WCI 13  
#ROCKY CYN DOT N/A 28 18 66 E2 N/A  
#RYEGRASS DOT N/A 24 16 71 E14 N/A WCI 12  
#THORP 6N N/A 28 23 81 CALM 30.27R  

 
 
WAZ027-032310-  
YAKIMA VALLEY  
 
CITY SKY/WX TMP DP RH WIND PRES REMARKS
 
YAKIMA AIRPORT FAIR 34 20 56 N12 30.27F WCI 25  
YAKIMA-VAGABOND N/A 30 17 58 E15 30.22S WCI 19  
#MABTON N/A 35 25 66 W2 30.28F  
#NACHES 2SW N/A 29 21 72 NE2 30.24S  
#OUTLOOK DOT N/A 34 21 58 CALM N/A  
#PARKER DOT N/A 35 19 52 CALM N/A  
#TERRACE HTS N/A 36 22 56 W2 30.30F  
#I82 S UMTANUM RN/A 29 15 55 N20 N/A WCI 16  
#UNION GAP DOT N/A 35 21 56 SW1 N/A  
#ZILLAH DOT N/A 34 18 51 W6 N/A  

 
 
WAZ028-032310-  
LOWER COLUMBIA BASIN...WASHINGTON  
 
CITY SKY/WX TMP DP RH WIND PRES REMARKS
 
HANFORD MOSUNNY 32 19 58 NW10 30.31R  
PASCO FAIR 34 21 58 N12 30.33F WCI 25  
PROSSER AWOS N/A 34 23 64 CALM 30.32F  
RICHLAND AWOS FAIR 35 23 61 N9 30.34S  
#BASIN CITY 5SW N/A 32 23 69 N12 30.30F WCI 23  
#BENTON CITY N/A 34 20 56 NE5 30.25S  
#CONNELL 5N N/A 33 25 72 N5 30.35F  
#ELTOPIA 6NW N/A 33 24 69 CALM 29.25F  
#KAHLOTUS N/A 32 26 78 CALM 30.35F  
#KENNEWICK 3S N/A 32 22 66 N1 30.36S  
#PROSSER DOT N/A 35 21 56 SW1 N/A  
#SAGEMOOR 2W N/A 31 23 72 N6 30.35S  
#TOUCHET 2S N/A 29 22 75 CALM 30.34F  

 
 
WAZ029-032310-  
FOOTHILLS OF THE BLUES...WASHINGTON  
 
CITY SKY/WX TMP DP RH WIND PRES REMARKS
 
WALLA WALLA AP FAIR 25 19 78 CALM 30.26S  
#CLYDE 6NW N/A 33 24 69 SW5 30.26F  
#DELANEY DOT N/A 35 24 64 W1 N/A  
#LOWDEN 2SE N/A 28 23 81 CALM 30.19S  
#PRESCOTT N/A 32 26 78 CALM 30.32F  
#WALLA WALLA 5E N/A 26 23 88 CALM N/A  
#WHITMAN MISSIONN/A 26 22 85 W1 30.37F  

 
 
WAZ030-032310-  
BLUE MOUNTAINS...WASHINGTON  
 
CITY SKY/WX TMP DP RH WIND PRES REMARKS
 

 
 
ORZ009-041-WAZ024-032310-  
COLUMBIA RIVER GORGE  
 
CITY SKY/WX TMP DP RH WIND PRES REMARKS
 
HOOD RIVER AP PTCLDY 34 23 64 NE3 30.23F  
THE DALLES AP FAIR 37 23 56 NE7 30.27F  
#CELILO DOT N/A 33 21 61 E3 N/A  
#LYLE N/A 35 25 66 SE9 30.28F  
#MARYHILL N/A 32 22 66 NE12 N/A WCI 23  
#RUFUS DOT N/A 35 24 64 SE10 N/A  
 

 
 
ORZ510-032310-  
NORTH CENTRAL OREGON  
 
CITY SKY/WX TMP DP RH WIND PRES REMARKS
 
#ANTELOPE N/A 35 22 59 CALM 30.07S  
#COW CYN RST AREN/A 26 19 74 SE9 N/A  
#DUFUR N/A 32 23 69 NW3 30.24S  
#GRASS VALLEY 1SN/A 27 21 78 NE12 30.22S WCI 16  
#KENT DOT N/A 28 13 53 NE14 N/A WCI 17  
#MORO SCHOOL N/A 58 46 64 E3 30.04S  
#SHANIKO 5WSW N/A 26 19 74 N14 N/A WCI 14  
#WAPANITIA AIRPON/A 31 23 72 NE2 30.27F  
#WASCO DOT N/A 33 24 69 E13 N/A WCI 24  
#WASCO 5NE N/A 29 22 75 E14 30.27S WCI 18  

 
 
ORZ511-032310-  
CENTRAL OREGON  
 
CITY SKY/WX TMP DP RH WIND PRES REMARKS
 
MADRAS AIRPORT PTCLDY 32 21 63 N10 30.11F  
PRINEVILLE AP FAIR 39 19 44 VRB5 30.03F  
REDMOND AIRPORT FAIR 37 20 50 NW9 30.03F  
#ASHWOOD SCHOOL N/A 37 22 54 NW3 30.03S  
#CULVER N/A 30 19 63 N3 29.51S  
#PRINEVILLE N/A 42 24 48 CALM 30.22F  
 

 
 
 
ORZ509-032310-  
EAST SLOPES OF OREGON CASCADES  
 
CITY SKY/WX TMP DP RH WIND PRES REMARKS
 
SISTERS AWOS N/A 34 18 51 CALM 30.00F  
SUNRIVER AWOS FAIR 30 19 63 N7 30.02F  
#CAMP SHERMAN N/A 37 21 52 CALM 30.22R  
#LA PINE DOT N/A 35 23 61 N3 N/A  
#LAVA BUTTE DOT N/A 31 22 69 NE5 N/A  
#SISTERS ODOT N/A 33 15 47 CALM N/A  
#WANOGA BUTTE D N/A 30 22 72 W5 N/A  
 

 
 
ORZ044-032310-  
LOWER COLUMBIA BASIN...OREGON  
 
CITY SKY/WX TMP DP RH WIND PRES REMARKS
 
HERMISTON FAIR 34 22 61 NE15 30.28F WCI 24  
#BOARDMAN SCHOOLN/A 36 25 64 N5 30.27S  
#ECHO 8SW N/A 31 23 72 NE14 30.29F WCI 21  
#I-84 EX 198 DOTN/A 29 21 72 E3 N/A  
#UMATILLA N/A 35 22 59 CALM 30.30S  

 
 
ORZ507-032310-  
NORTHERN FOOTHILLS OF THE BLUES  
 
CITY SKY/WX TMP DP RH WIND PRES REMARKS
 
PENDLETON AIRPT FAIR 30 21 69 NE9 30.22F  
#ATHENA N/A 26 20 78 N3 30.29F  
#CAYUSE N/A 26 22 85 N3 30.26F  
#HELIX SCHOOL N/A 27 21 78 VRB8 30.29S  
#HOLDMAN 5SE N/A 28 22 78 N7 30.22S  
#M-FREEWATER 5SEN/A 24 19 81 CALM 30.23S  
#PDT SUNRIDGE N/A 27 20 74 NE1 30.20F  
#PENDLETON 6SE N/A 27 20 74 CALM 30.24S  
#TUTUILLA N/A 26 20 78 N3 30.28F  
#UMAPINE 2E N/A 25 21 84 CALM 30.34F  
 

 
 
ORZ508-032310-  
SOUTHERN FOOTHILLS OF THE BLUES  
 
CITY SKY/WX TMP DP RH WIND PRES REMARKS
 
#AJAX N/A 25 20 81 NE14G25 30.14R WCI 13  
#HEPPNER EOC N/A 30 22 72 E2 30.20S  
#HEPPNER 4NE N/A 24 20 84 E13 30.25S WCI 12  
#OLEX 4N N/A 31 24 75 NE6 30.32S  
#RUGGS 2SW N/A 25 19 78 N7 30.30S  
 

 
 
ORZ502-503-032310-  
BLUE MOUNTAINS  
 
CITY SKY/WX TMP DP RH WIND PRES REMARKS
 
MEACHAM FAIR 28 18 66 CALM 30.11S  
#BATTLE MTN DOT N/A 37 10 32 S1 N/A  
#LADD CYN SMT N/A 30 14 51 CALM N/A  
#LADD CREEK ODOTN/A 31 12 45 SW13 N/A WCI 21  
#N POWDER DOT N/A 31 13 47 S6 N/A  
#TOLLGATE N/A 24 20 84 SW1 30.09F  
#TROY SCHOOL N/A 26 20 78 CALM 30.23R  
#WESTON 4E N/A 34 16 47 CALM 30.23F  

 
 
ORZ505-032310-  
JOHN DAY BASIN  
 
CITY SKY/WX TMP DP RH WIND PRES REMARKS
 
JOHN DAY FAIR 35 18 49 E9 30.07F  
#DAYVILLE SCHOOLN/A 41 20 43 NE2 30.02F  
#MITCHELL 8NW N/A 34 17 49 CALM 30.15F  
#MONUMENT HS N/A 44 17 33 N3 30.04F  
#MT. VERNON 5SE N/A 38 19 46 E1 30.06F  

 
 
ORZ506-032310-  
OCHOCO AND JOHN DAY HIGHLANDS  
 
CITY SKY/WX TMP DP RH WIND PRES REMARKS
 
#BUCK CREEK DOT N/A 27 12 53 E17G24 N/A WCI 14  
#HORSE RIDGE DO N/A 35 18 49 NW3 N/A  
#KEYES SMT DOT N/A 33 15 47 E10 N/A  
#PAULINA ODOT N/A 35 18 49 S2 N/A  
#PRAIRIE CITY N/A 37 18 46 NE3 30.02F  
#SENECA 9NW N/A 30 16 55 CALM 30.35F  

 
 
ORZ049-032310-  
GRANDE RONDE VALLEY  
 
CITY SKY/WX TMP DP RH WIND PRES REMARKS
 
LA GRANDE FAIR 35 14 41 S17 30.20F WCI 25  
#COVE SCHOOL N/A 34 20 56 SE5 30.16S  
#COVE 6NW N/A 35 18 49 S9G24 30.30F  
#ELGIN 1E N/A 36 17 45 W2 N/A  
#IMBLER SCHOOL N/A 33 18 53 E1 30.12F  
#ISLAND CITY 4N N/A 44 31 60 CALM 30.03S  
#LADD CYN DOT N/A 33 15 47 S14G30 N/A WCI 23  
#UNION 1S N/A 34 18 51 SE9 30.34S  

 
 
ORZ050-032310-  
WALLOWA COUNTY  
 
CITY SKY/WX TMP DP RH WIND PRES REMARKS
 
JOSEPH AIRPORT FAIR 21 12 68 MISG 30.16R  
#ENTERPRISE HS N/A 25 16 68 CALM 30.35R  
#IMNAHA SCHOOL N/A 36 21 54 N7 30.31R  
#JOSEPH 3N N/A 20 13 74 CALM 30.19R  
#LOSTINE 3SE N/A 21 12 68 CALM 30.24R  
#MT HOWARD 8000 N/A 28 5 37 CALM 29.96R  
#WALLOWA SCHOOL N/A 18 10 70 CALM 30.52S  
 

 
 
CLICK HERE TO GO TO PREVIOUS BULLETINS.

The Nexlab OR Page
The Nexlab WA Page Main Text Page